GW0084 Weather Reports


Display with metric or nautical units.
time (UTC)temp
F
wind
direction
speed
MPH
gust
MPH
rain 1hr
in
rain 24hr
in
rain mn
in
humidity
%
barometer
mb
20260505124542 50 244 1.0 7.0 0.00 0.00 0.00 49 1011.8
20260505123040 50 0 0.0 4.0 0.00 0.00 0.00 49 1011.8
20260505121545 50 253 1.0 5.0 0.00 0.00 0.00 48 1011.5
20260505120103 50 0 0.0 5.0 0.00 0.00 0.00 46 1011.4
20260505114540 50 0 1.0 8.0 0.00 0.00 0.00 45 1011.4
20260505113046 50 231 4.0 10.0 0.00 0.00 0.00 45 1011.4
20260505111543 50 0 0.0 4.0 0.00 0.00 0.00 42 1011.5
20260505101546 51 0 0.0 3.0 0.00 0.00 0.00 44 1011.3
20260505100043 51 0 0.0 4.0 0.00 0.00 0.00 43 1011.1
20260505094542 51 0 0.0 3.0 0.00 0.00 0.00 42 1011.1
20260505093043 52 0 0.0 2.0 0.00 0.00 0.00 41 1011.2
20260505091543 52 0 0.0 8.0 0.00 0.00 0.00 40 1011.4
20260505090046 52 285 1.0 9.0 0.00 0.00 0.00 39 1011.0
20260505084540 53 236 2.0 11.0 0.00 0.00 0.00 37 1011.1
20260505083037 53 262 2.0 9.0 0.00 0.00 0.00 38 1011.2
20260505081543 53 259 3.0 18.0 0.00 0.00 0.00 38 1011.6
20260505080042 53 210 5.0 18.0 0.00 0.00 0.00 37 1011.8
20260505074541 54 244 1.0 10.0 0.00 0.00 0.00 36 1011.7
20260505073058 54 318 2.0 11.0 0.00 0.00 0.00 35 1011.8
20260505071546 55 257 4.0 14.0 0.00 0.00 0.00 34 1011.6
20260505070044 55 259 2.0 11.0 0.00 0.00 0.00 33 1011.9
20260505064544 56 249 2.0 10.0 0.00 0.00 0.00 32 1011.9
20260505063041 56 0 1.0 10.0 0.00 0.00 0.00 31 1012.0
20260505061554 57 258 1.0 9.0 0.00 0.00 0.00 31 1011.9
20260505060045 57 0 1.0 7.0 0.00 0.00 0.00 31 1011.9
20260505054606 58 0 3.0 11.0 0.00 0.00 0.00 31 1012.0
20260505053058 58 210 2.0 10.0 0.00 0.00 0.00 32 1011.7
20260505051538 59 180 3.0 11.0 0.00 0.00 0.00 33 1011.6
20260505041555 59 0 0.0 5.0 0.00 0.00 0.00 32 1011.6
20260505040041 59 0 0.0 1.0 0.00 0.00 0.00 32 1011.6
20260505034549 59 0 0.0 5.0 0.00 0.00 0.00 31 1011.5
20260505033042 59 258 0.0 4.0 0.00 0.00 0.00 30 1011.6
20260505031553 60 225 2.0 8.0 0.00 0.00 0.00 30 1011.5
20260505030040 60 271 0.0 4.0 0.00 0.00 0.00 29 1011.2
20260505024544 60 275 1.0 6.0 0.00 0.00 0.00 28 1011.2
20260505023042 61 30 1.0 10.0 0.00 0.00 0.00 26 1011.0
20260505021542 61 223 3.0 13.0 0.00 0.00 0.00 25 1010.9
20260505020041 62 199 0.0 9.0 0.00 0.00 0.00 25 1010.9
20260505014540 62 260 3.0 12.0 0.00 0.00 0.00 24 1010.9
20260505013038 63 246 4.0 14.0 0.00 0.00 0.00 23 1010.6
20260505011544 63 228 4.0 9.0 0.00 0.00 0.00 21 1010.3
20260505010042 64 254 3.0 10.0 0.00 0.00 0.00 20 1010.4
20260505004548 64 228 3.0 12.0 0.00 0.00 0.00 19 1010.4
20260505003042 65 154 7.0 14.0 0.00 0.00 0.00 19 1010.4
20260505001548 65 234 4.0 12.0 0.00 0.00 0.00 19 1010.4
20260505000058 65 259 6.0 13.0 0.00 0.00 0.00 19 1010.4
20260504234541 65 262 6.0 15.0 0.00 0.00 0.00 20 1010.5
20260504233041 66 164 3.0 14.0 0.00 0.00 0.00 20 1010.5
20260504231539 67 339 6.0 16.0 0.00 0.00 0.00 20 1010.6
20260504230048 67 250 6.0 17.0 0.00 0.00 0.00 20 1010.9
20260504224546 69 265 3.0 12.0 0.00 0.00 0.00 19 1011.2
20260504223042 68 190 2.0 8.0 0.00 0.00 0.00 19 1011.4
20260504221553 67 85 2.0 13.0 0.00 0.00 0.00 19 1011.6
20260504220049 67 269 2.0 10.0 0.00 0.00 0.00 19 1011.6
20260504214544 67 252 2.0 12.0 0.00 0.00 0.00 19 1011.8
20260504213050 66 334 2.0 15.0 0.00 0.00 0.00 18 1012.1
20260504211550 65 259 3.0 17.0 0.00 0.00 0.00 17 1012.3
20260504210047 66 270 4.0 15.0 0.00 0.00 0.00 16 1012.6
20260504204546 67 205 3.0 15.0 0.00 0.00 0.00 14 1012.9
20260504203059 66 273 2.0 13.0 0.00 0.00 0.00 14 1012.9
20260504201550 66 214 6.0 14.0 0.00 0.00 0.00 13 1013.1
20260504200051 66 172 7.0 20.0 0.00 0.00 0.00 15 1013.0
20260504194550 68 165 4.0 12.0 0.00 0.00 0.00 17 1012.9
20260504193050 66 262 5.0 14.0 0.00 0.00 0.00 18 1013.2
20260504191541 66 42 2.0 13.0 0.00 0.00 0.00 22 1013.1
20260504190046 65 132 5.0 15.0 0.00 0.00 0.00 21 1013.3
20260504184542 66 229 8.0 13.0 0.00 0.00 0.00 21 1013.3
20260504183040 67 229 1.0 7.0 0.00 0.00 0.00 21 1013.4
20260504181555 67 221 1.0 7.0 0.00 0.00 0.00 22 1013.6
20260504180050 66 246 3.0 9.0 0.00 0.00 0.00 20 1013.8
20260504174543 65 238 1.0 12.0 0.00 0.00 0.00 22 1014.1
20260504173042 64 136 4.0 8.0 0.00 0.00 0.00 26 1013.9
20260504171541 64 294 2.0 5.0 0.00 0.00 0.00 30 1014.1